TimeAST,TemperatureF,Dew PointF,Humidity,Sea Level PressureIn,VisibilityMPH,Wind Direction,Wind SpeedMPH,Gust SpeedMPH,PrecipitationIn,Events,Conditions,WindDirDegrees,DateUTC
12:00 AM,31.5,30.2,95,29.76,-9999.0,North,11.5,20.7,N/A,,Unknown,350,2013-02-22 04:00:00
1:00 AM,31.5,29.1,91,29.81,-9999.0,North,12.7,20.7,N/A,,Unknown,350,2013-02-22 05:00:00
2:00 AM,33,29,77,29.84,,North,13.8,,,,,350,2013-02-22 06:00:00
2:00 AM,31.5,28.6,89,29.84,-9999.0,North,13.8,21.9,N/A,,Unknown,350,2013-02-22 06:00:00
3:00 AM,33.1,28.6,84,29.87,-9999.0,North,15.0,21.9,N/A,,Unknown,350,2013-02-22 07:00:00
4:00 AM,33.3,28.2,82,29.91,-9999.0,North,15.0,27.6,N/A,,Unknown,360,2013-02-22 08:00:00
5:00 AM,33,28,73,29.96,,North,13.8,,,,,0,2013-02-22 09:00:00
5:00 AM,32.9,27.7,81,29.96,-9999.0,North,13.8,26.5,N/A,,Unknown,360,2013-02-22 09:00:00
6:00 AM,32.0,25.9,78,30.02,-9999.0,North,16.1,24.2,N/A,,Unknown,350,2013-02-22 10:00:00
7:00 AM,31.5,25.7,79,30.05,-9999.0,North,16.1,27.6,N/A,,Unknown,350,2013-02-22 11:00:00
8:00 AM,31,25,69,30.08,,North,16.1,,,,,350,2013-02-22 12:00:00
8:00 AM,30.9,24.6,77,30.08,-9999.0,North,16.1,24.2,N/A,,Unknown,350,2013-02-22 12:00:00
9:00 AM,31.3,24.1,75,30.12,-9999.0,North,13.8,21.9,N/A,,Unknown,360,2013-02-22 13:00:00
10:00 AM,31.5,23.2,71,30.15,-9999.0,North,15.0,23.0,N/A,,Unknown,350,2013-02-22 14:00:00
11:00 AM,34,24,55,30.16,,North,16.1,,,,,350,2013-02-22 15:00:00
11:00 AM,34.0,23.7,66,30.16,-9999.0,North,16.1,26.5,N/A,,Unknown,350,2013-02-22 15:00:00
12:00 PM,31.5,22.5,69,30.19,-9999.0,North,15.0,25.3,N/A,,Unknown,360,2013-02-22 16:00:00
1:00 PM,33.6,23.9,68,30.19,-9999.0,North,12.7,24.2,N/A,,Unknown,10,2013-02-22 17:00:00
2:00 PM,33,22,52,30.19,,North,13.8,,,,,350,2013-02-22 18:00:00
2:00 PM,33.1,22.1,64,30.19,-9999.0,North,13.8,21.9,N/A,,Unknown,350,2013-02-22 18:00:00
3:00 PM,32.0,22.1,67,30.22,-9999.0,North,11.5,21.9,N/A,,Unknown,350,2013-02-22 19:00:00
4:00 PM,30.4,21.0,68,30.24,-9999.0,North,11.5,19.6,N/A,,Unknown,350,2013-02-22 20:00:00
5:00 PM,29,20,59,30.27,,North,10.4,,,,,350,2013-02-22 21:00:00
5:00 PM,29.1,20.3,70,30.27,-9999.0,North,10.4,17.3,N/A,,Unknown,350,2013-02-22 21:00:00
6:00 PM,28.2,20.1,72,30.29,-9999.0,North,11.5,19.6,N/A,,Unknown,350,2013-02-22 22:00:00
7:00 PM,27.3,18.9,70,30.31,-9999.0,North,11.5,-,N/A,,Unknown,350,2013-02-22 23:00:00
8:00 PM,27,20,64,30.33,,North,9.2,,,,,350,2013-02-23 00:00:00
8:00 PM,27.0,19.8,74,30.33,-9999.0,North,9.2,-,N/A,,Unknown,350,2013-02-23 00:00:00
9:00 PM,27.1,20.5,76,30.31,-9999.0,NNE,9.2,-,N/A,,Unknown,20,2013-02-23 01:00:00
10:00 PM,27.1,20.5,76,30.32,-9999.0,North,5.8,-,N/A,,Unknown,10,2013-02-23 02:00:00
11:00 PM,27,20,65,30.32,,North,6.9,,,,,0,2013-02-23 03:00:00
11:00 PM,26.8,19.9,75,30.32,-9999.0,North,6.9,-,N/A,,Unknown,360,2013-02-23 03:00:00